Historyczne dane pomiarowe

Dodano dane terminowe – wersja testowa.

Dane z okresu 1951-2019

Wersja bazy: 1.34 [2019-03-16, lista zmian], aktualizacja planowana na 2019-04-15

Dane meteo z obszaru Polski uzyskane na podstawie danych udostępnionych przez Instytut Meteorologii i Gospodarki Wodnej – Państwowy Instytut Badawczy.

 

Wybierz Datę:    

       

TemperaturaWilgotnośćWiatrCiśnienieOpadyŚniegCzas trwania zjawisk
 Stacja t tx tn tng RH VA  wxwx mslp ppp RRR   cm mm wxwxwxwxwxwxwx
2019-09-30 14.9 20.4 11.7 10.3 76.5 12.9- 6.0--1000.8 975.2 5.8 4.0 0.0x- 3.7-------
2019-09-29 13.7 19.3 9.6 9.3 82.4 12.6- 3.4--1010.6 984.6 0.0 0.0 0.0x- 6.0-------
2019-09-28 14.9 19.0 13.5 12.5 89.9 15.1- 2.4--1013.7 987.8 0.0 0.0 0.0x- 1.6-------
2019-09-27 15.0 19.4 11.1 9.8 85.1 14.3- 1.9--1015.0 989.0 4.5 0.0 4.5x- 7.3-------
2019-09-26 14.3 16.7 13.1 12.9 93.3 15.1- 2.3--1011.1 985.2 0.0 0.0 0.0x- 1.0-------
2019-09-25 11.8 15.5 7.5 5.4 91.3 12.8- 2.5--1010.4 984.2 8.5 0.5 8.0x- 1.1-------
2019-09-24 10.9 16.7 8.2 8.4 86.1 11.1- 1.6--1016.5 990.1 0.0 0.0 0.0x- 6.4-------
2019-09-23 11.2 18.9 5.8 3.2 81.4 10.7- 3.0--1017.2 990.9 0.0 0.0 0.0x- 10.6-------
2019-09-22 13.1 20.4 5.4 4.4 71.8 10.4- 2.4--1018.9 992.6 0.0 0.0 0.0x- 11.6-------
2019-09-21 11.2 16.6 6.2 3.4 78.1 10.3- 2.8--1024.5 997.9 0.0 0.0 0.0x- 4.9-------
2019-09-20 8.6 14.2 3.6 2.6 72.3 7.8- 3.0--1025.6 998.7 0.9 0.9 0.0x- 8.3-------
2019-09-19 9.0 14.5 6.8 6.1 76.4 8.6- 3.3--1022.7 996.0 0.0 0.0 0.0x- 8.4-------
2019-09-18 9.5 14.3 7.1 6.7 71.9 8.4- 5.6--1015.7 989.3 0.0 0.0 0.0x- 6.3-------
2019-09-17 11.4 15.2 7.9 5.9 74.1 9.8- 3.5--1012.1 985.9 3.4 0.0 3.4x- 3.9-------
2019-09-16 14.3 18.3 10.6 10.2 74.9 12.1- 3.3--1015.6 989.5 0.0 0.0 0.0x- 2.2-------
2019-09-15 13.3 19.6 5.5 4.9 70.4 10.4- 3.1--1023.5 997.2 0.0 0.0 0.0x- 10.9-------
2019-09-14 14.0 18.2 10.1 9.1 70.3 11.0- 3.0--1030.61004.2 0.0 0.0 0.0x- 10.5-------
2019-09-13 17.2 23.1 11.5 10.0 76.8 14.9- 2.5--1027.41001.3 0.0 0.0 0.0x- 6.6-------
2019-09-12 17.5 24.6 10.3 8.5 72.8 14.1- 2.0--1027.01001.0 0.0 0.0 0.0x- 12.0-------
2019-09-11 16.8 23.8 9.7 7.5 72.0 13.4- 1.5--1024.3 998.2 0.0 0.0 0.0x- 11.6-------
2019-09-10 14.6--- 79.5 12.9- 2.6--1019.3 993.2 0.0 0.0 0.0x- 6.0-------
2019-09-09 18.6 25.1 14.6 14.0 75.1 15.5- 3.0--1013.6 988.0 4.8 0.0 4.8x- 7.9-------
2019-09-08 18.1 22.5 15.4 15.3 82.5 16.8- 2.0--1017.4 991.6 0.1 0.1 0.0x- 7.9-------
2019-09-07 17.8 23.2 12.0 10.6 69.4 14.2- 2.5--1018.6 992.8 3.4 0.0 3.4x- 6.4-------
2019-09-06 16.6 20.3 14.3 12.5 67.8 12.6- 3.0--1021.6 995.6 0.0 0.0 0.0x- 9.6-------
2019-09-05 17.2 23.9 10.0 9.0 68.6 13.0- 2.0--1015.8 990.1 0.0 0.0 0.0x- 12.5-------
2019-09-04 15.5 21.7 9.8 9.3 77.5 13.3- 1.6--1020.4 994.3 0.0 0.0 0.0x- 8.9-------
2019-09-03 13.8 18.7 12.6 12.4 93.3 14.6- 3.0--1022.2 996.0 4.2 4.2 0.0x- 1.7-------
2019-09-02 20.0 25.4 17.2 15.8 84.0 19.4- 3.5--1014.9 989.3 17.6 0.0 17.6x- 6.2-------
2019-09-01 23.8 30.0 16.2 15.4 62.1 17.9- 2.0--1013.8 988.6 0.9 0.0 0.9x- 12.4-------
2019-08-31 22.1 29.0 16.1 15.7 75.3 19.2- 1.9--1020.6 995.2 0.0 0.0 0.0x- 11.2-------
2019-08-30 20.8 27.5 17.5 16.1 84.3 20.5- 2.0--1021.4 995.8 2.7 2.7 0.0x- 5.9-------
2019-08-29 24.5 31.0 18.1 16.6 68.0 20.2- 2.0--1018.2 993.0 0.0 0.0 0.0x- 11.9-------
2019-08-28 23.9 30.7 17.4 16.5 62.8 18.4- 2.3--1019.9 994.6 0.0 0.0 0.0x- 12.3-------
2019-08-27 24.0 30.6 17.6 15.2 58.0 16.8- 2.4--1021.5 996.1 0.0 0.0 0.0x- 12.5-------
2019-08-26 23.7 30.1 17.3 16.2 58.0 16.8- 2.3--1022.2 996.8 0.0 0.0 0.0x- 12.7-------
2019-08-25 21.9 28.6 15.5 14.5 60.9 15.7- 2.5--1023.3 997.8 0.0 0.0 0.0x- 12.6-------
2019-08-24 20.1 25.9 14.1 13.2 65.5 15.1- 2.3--1025.5 999.7 0.0 0.0 0.0x- 12.9-------
2019-08-23 18.9 24.4 13.7 12.7 71.5 15.3- 2.4--1027.51001.6 0.0 0.0 0.0x- 8.8-------
2019-08-22 17.6 22.0 13.3 12.9 78.6 15.4- 1.9--1028.71002.6 0.0 0.0 0.0x- 6.1-------
2019-08-21 18.7 22.5 16.4 16.0 86.8 18.9- 3.3--1023.1 997.2 0.0 0.0 0.0x- 3.4-------
2019-08-20 21.0 25.7 17.4 17.1 82.4 20.3- 2.8--1020.9 995.3 15.0 0.0 15.0x- 7.4-------
2019-08-19 23.7 31.1 16.9 15.5 70.5 20.2- 3.0--1015.2 989.9 0.0 0.0 0.0x- 10.7-------
2019-08-18 20.7 27.0 14.7 13.7 73.0 17.2- 2.9--1013.0 987.6 0.0 0.0 0.0x- 12.0-------
2019-08-17 19.5 24.1 14.0 13.2 75.6 16.7- 1.6--1015.8 990.2 0.0 0.0 0.0x- 9.8-------
2019-08-16 17.8 23.2 10.7 9.2 69.9 13.9- 1.8--1016.1 990.3 0.0 0.0 0.0x- 10.1-------
2019-08-15 15.6 22.2 9.1 7.9 70.9 11.8- 1.3--1016.9 991.0 0.0 0.0 0.0x- 12.2-------
2019-08-14 14.5--- 97.3------- 10.0 10.0 0.0x- 0.6-------
2019-08-13 19.3 26.6 16.8 16.6 87.9 19.5- 2.3--1014.7 989.1 0.2 0.2 0.0x- 3.9-------
2019-08-12 23.5 31.0 16.4 15.6 73.1 21.1- 1.9--1013.4 988.2 17.3 0.0 17.3x- 9.9-------
2019-08-11 21.9 27.1 16.8 16.4 69.3 17.5- 2.1--1017.3 991.9 0.0 0.0 0.0x- 12.5-------
2019-08-10 21.6 29.0 13.4 11.7 69.6 17.8- 2.6--1014.2 988.8 10.2 0.0 10.2x- 7.1-------
2019-08-09 21.0 27.8 14.6 13.9 63.4 15.0- 2.6--1013.2 987.9 0.0 0.0 0.0x- 12.6-------
2019-08-08 20.4 25.1 17.7 17.6 76.0 17.8- 3.4--1009.1 983.8 0.1 0.1 0.0x- 9.1-------
2019-08-07 20.6 28.1 17.1 17.1 86.1 20.7- 2.8--1009.0 983.7 15.5 10.4 5.1x- 8.0-------
2019-08-06 21.3 28.1 15.4 15.3 71.0 17.2- 2.4--1011.5 986.2 0.2 0.0 0.2x- 10.6-------
2019-08-05 19.0 23.9 14.4 13.6 67.8 14.7- 2.1--1012.9 987.4 0.1 0.0 0.1x- 8.5-------
2019-08-04 17.1 24.1 11.4 10.6 70.3 13.4- 2.6--1012.9 987.1 0.1 0.1 0.0x- 7.6-------
2019-08-03 17.8 23.1 12.8 11.9 66.8 13.1- 1.9--1010.7 985.1 0.0 0.0 0.0x- 8.5-------
2019-08-02 18.3 23.7 14.2 13.8 73.1 15.0- 2.5--1012.9 987.3 0.0 0.0 0.0x- 9.8-------
59.6 ms

 

Źródłem pochodzenia danych jest Instytut Meteorologii i Gospodarki Wodnej – Państwowy Instytut Badawczy. Dane Instytutu Meteorologii i Gospodarki Wodnej – Państwowego Instytutu Badawczego zostały przetworzone.

Dane źródłowe można odnaleźć na stronie https://dane.imgw.pl